sat.trackr.live / text

‹ back to catalog

STARLINK-11552 [DTC]

NORAD 62907 · 2025-027A

PAYLOAD ACTIVE UNKNOWN

§ Identity

Operator
Country
US
Launch date
2025-02-08
Launch site
AFETR
Launch vehicle
Mass (kg)
RCS (m²)

Purposes: comms

External: N2YO · Heavens-Above · Gunter

§ Orbital elements

Epoch: 2026-05-25T00:10:11.824320Z

Period
91.67 min
Inclination
43.0003°
Eccentricity
0.0000287
Mean motion
15.70875304 rev/d
Perigee alt
356.2 km
Apogee alt
356.6 km
Semi-major
6,734.5 km
B*
1.3457e-3
RAAN
247.7597°
Arg perigee
1.5491°
Mean anomaly
358.5377°
Rev number
7,519

§ Raw data

STARLINK-11552 [DTC]1 62907U 25027A   26145.00708130  .00176190  00000+0  13457-2 0  99922 62907  43.0003 247.7597 0000287   1.5491 358.5377 15.70875304 75194

JSON: /api/v1/satellites/62907 · /tle

For live sub-satellite position, see the globe view (requires WebGL).

§ Visibility from observer

Set your observer location to see the next 7 days of passes ≥ 10°. The values pass through the URL so the page stays shareable.

No JS? Fill the form by hand. The geolocation button needs JavaScript.